Ottumwa, IA

6:03 AM CDT on March 28, 2017 (GMT -0500)
Ottumwa Industrial

Weather History for KOTM - May, 2013

Change the Weather History Date:

Friday, May 10, 2013

  Actual Average Record
Temperature  
Mean Temperature 55 °F 59 °F  
Max Temperature 61 °F 70 °F 92 °F (2011)
Min Temperature 48 °F 49 °F 30 °F (1966)
Degree Days  
Heating Degree Days 10 7  
Month to date heating degree days 106 78  
Since 1 July heating degree days 6166 6208  
Cooling Degree Days 0 1  
Month to date cooling degree days 0 10  
Year to date cooling degree days 12 21  
Growing Degree Days 5 (Base 50)    
Moisture  
Dew Point 50 °F    
Average Humidity 81    
Maximum Humidity 93    
Minimum Humidity 69    
Precipitation  
Precipitation 0.11 in 0.15 in 2.80 in (2001)
Month to date precipitation 2.29 1.44  
Year to date precipitation 16.22 9.26  
Sea Level Pressure  
Sea Level Pressure 29.95 in    
Wind  
Wind Speed 10 mph (NNW)    
Max Wind Speed 18 mph    
Max Gust Speed 22 mph    
Visibility 8 miles    
Events Rain    
T = Trace of Precipitation, MM = Missing Value Source: NWS Daily Summary

Daily Weather History Graph

Daily Weather History Graph

Search for Another Location

Airport or City:

Trip Planner

Search our weather history database for the weather conditions in past years. The results will help you decide how hot, cold, wet, or windy it might be!

Date:

Astronomy

May. 10, 2013 Rise Set
Actual Time 5:56 AM CDT 8:16 PM CDT
Civil Twilight 5:25 AM CDT 8:47 PM CDT
Nautical Twilight 4:47 AM CDT 9:25 PM CDT
Astronomical Twilight 4:05 AM CDT 10:08 PM CDT
Moon 6:21 AM CDT (5/10) 9:06 PM CDT (5/10)
Length of Visible Light 15h 21m
Length of Day
14h 19m
New Moon, 0% of the Moon is Illuminated
May 10
New Moon
May 17
First Quarter
May 24
Full
May 31
Last Quarter
Jun 8
New

Hourly Weather History & Observations

Time (CDT) Temp. Dew Point Humidity Pressure Visibility Wind Dir Wind Speed Gust Speed Precip Events Conditions
12:05 AM 57.2 °F 55.4 °F 94% 29.86 in 10.0 mi NW 16.1 mph 21.9 mph N/A   Overcast
12:53 AM 57.2 °F 53.6 °F 88% 29.87 in 10.0 mi NW 16.1 mph - N/A   Overcast
1:29 AM 55.4 °F 53.6 °F 94% 29.87 in 10.0 mi NW 13.8 mph - N/A   Overcast
1:53 AM 55.9 °F 53.1 °F 90% 29.87 in 10.0 mi WNW 11.5 mph - N/A   Overcast
2:53 AM 55.0 °F 53.1 °F 93% 29.87 in 4.0 mi WNW 10.4 mph - N/A   Overcast
3:34 AM 55.4 °F 53.6 °F 94% 29.88 in 2.5 mi NW 10.4 mph - N/A Rain Light Rain
3:53 AM 55.0 °F 53.1 °F 93% 29.88 in 2.5 mi NW 10.4 mph - 0.04 in Rain Light Rain
4:08 AM 53.6 °F 53.6 °F 100% 29.89 in 3.0 mi NNW 16.1 mph - 0.00 in Rain Light Rain
4:46 AM 53.6 °F 51.8 °F 94% 29.91 in 5.0 mi North 15.0 mph - 0.06 in Rain Light Rain
4:53 AM 53.1 °F 51.1 °F 93% 29.91 in 8.0 mi North 10.4 mph - 0.07 in Rain Light Rain
5:53 AM 53.1 °F 51.1 °F 93% 29.91 in 10.0 mi North 13.8 mph - 0.00 in   Overcast
6:53 AM 53.6 °F 50.0 °F 88% 29.94 in 10.0 mi North 9.2 mph - N/A   Overcast
7:03 AM 53.6 °F 50.0 °F 88% 29.94 in 10.0 mi North 12.7 mph - N/A   Overcast
7:53 AM 53.6 °F 50.0 °F 88% 29.95 in 3.0 mi North 11.5 mph - N/A   Overcast
8:14 AM 53.6 °F 51.8 °F 94% 29.95 in 4.0 mi North 12.7 mph - N/A   Overcast
8:30 AM 53.6 °F 50.0 °F 88% 29.96 in 5.0 mi North 11.5 mph - N/A   Overcast
8:53 AM 52.0 °F 48.9 °F 89% 29.96 in 10.0 mi North 15.0 mph - 0.00 in   Overcast
9:53 AM 52.0 °F 48.9 °F 89% 29.98 in 9.0 mi North 13.8 mph - 0.00 in Rain Light Rain
10:48 AM 51.8 °F 48.2 °F 88% 29.99 in 10.0 mi North 13.8 mph - 0.00 in   Overcast
10:53 AM 52.0 °F 48.0 °F 86% 29.99 in 10.0 mi North 12.7 mph - 0.00 in   Overcast
11:53 AM 53.6 °F 48.2 °F 82% 30.00 in 10.0 mi NNW 17.3 mph - N/A   Overcast
12:53 PM 52.0 °F 46.9 °F 83% 30.01 in 10.0 mi NNW 15.0 mph - N/A   Overcast
1:53 PM 53.1 °F 46.9 °F 80% 30.01 in 10.0 mi NNW 13.8 mph - N/A   Overcast
2:22 PM 53.6 °F 48.2 °F 82% 30.01 in 10.0 mi NNW 13.8 mph - N/A   Overcast
2:53 PM 54.0 °F 48.0 °F 80% 30.01 in 10.0 mi NNW 13.8 mph - N/A   Overcast
3:53 PM 55.0 °F 48.0 °F 77% 30.01 in 10.0 mi NNW 12.7 mph - N/A   Overcast
4:53 PM 57.0 °F 50.0 °F 77% 30.00 in 10.0 mi North 10.4 mph - N/A   Overcast
5:39 PM 59.0 °F 50.0 °F 72% 30.00 in 10.0 mi North 5.8 mph - N/A   Overcast
5:53 PM 59.0 °F 50.0 °F 72% 29.99 in 10.0 mi North 5.8 mph - N/A   Overcast
6:53 PM 60.1 °F 50.0 °F 69% 29.98 in 10.0 mi North 5.8 mph - N/A   Clear
7:53 PM 57.0 °F 51.1 °F 81% 29.99 in 10.0 mi Calm Calm - N/A   Clear
8:53 PM 52.0 °F 48.9 °F 89% 29.99 in 10.0 mi SE 3.5 mph - N/A   Clear
9:53 PM 50.0 °F 46.9 °F 89% 30.01 in 10.0 mi South 3.5 mph - N/A   Clear
10:53 PM 51.1 °F 48.0 °F 89% 30.01 in 10.0 mi SSW 4.6 mph - N/A   Clear
11:53 PM 48.9 °F 46.9 °F 93% 30.01 in 9.0 mi South 6.9 mph - N/A   Clear